Terminal Aerodrome Forecast
Issued by NWS Pueblo, CO

Home | Current Version | Previous Version | Text Only | Print | Product List | Glossary On
Versions: 1 2 3 4 5 6 7 8 9 10 11 12 13 14 15 16 17 18 19 20 21 22 23 24 25 26 27 28 29 30
000
FTUS45 KPUB 221725
TAFCOS
TAF
KCOS 221725Z 2218/2318 VRB06KT P6SM VCSH FEW050 BKN110
     FM221900 13010KT 5SM -SHRA BKN040
     FM222100 32014KT 3SM -TSRA OVC040CB
     FM230100 34010KT P6SM VCTS SCT040CB BKN120
     FM230400 36008KT P6SM FEW060 SCT120
     FM231000 VRB05KT P6SM FEW120 SCT200
     FM231700 18010KT P6SM SCT070 SCT120=

USA.gov is the U.S. government's official web portal to all federal, state and local government web resources and services.